Location: Grand Rapids
(42.9630°N, 85.6680°W)
Time: 02:45:30
(UTC-04:00)

Transit 2A - All Passes

Search period start: 30 May 2024 00:00
Search period end: 09 June 2024 00:00
Orbit: 594 x 958 km, 66.7° (Epoch: 29 May)

Date Brightness Start Highest point End Pass type
(mag) Time Alt. Az. Time Alt. Az. Time Alt. Az.
30 May - 04:51:45 10° N 04:54:20 13° NNE 04:56:59 10° ENE visible
30 May - 06:33:07 10° NNW 06:38:54 49° NE 06:44:58 10° SE daylight
30 May - 08:16:35 10° NW 08:21:55 33° WSW 08:27:26 10° S daylight
30 May - 21:14:43 10° SSE 21:18:30 25° ESE 21:22:36 10° NE daylight
30 May - 22:56:51 10° WSW 23:01:19 41° NW 23:06:16 10° NNE visible
31 May - 04:18:14 10° NNE 04:18:39 10° NNE 04:19:04 10° NNE visible
31 May - 05:58:05 10° NNW 06:03:33 36° NE 06:09:16 10° ESE daylight
31 May - 07:41:05 10° NW 07:46:52 47° WSW 07:52:51 10° S daylight
31 May - 20:40:41 10° SE 20:43:36 16° ESE 20:46:40 10° ENE daylight
31 May - 22:21:23 10° SW 22:26:01 60° NW 22:31:11 10° NNE visible
01 Jun - 00:08:08 10° WNW 00:10:25 13° NNW 00:12:47 10° N visible
01 Jun - 05:23:07 10° NNW 05:28:08 27° NE 05:33:23 10° ESE visible
01 Jun - 07:05:45 10° NW 07:11:45 66° WSW 07:18:00 10° SSE daylight
01 Jun - 08:53:10 10° W 08:53:55 10° W 08:54:42 10° WSW daylight
01 Jun - 20:08:22 10° ESE 20:08:44 10° E 20:09:07 10° E daylight
01 Jun - 21:46:08 10° SSW 21:50:48 90° WNW 21:56:00 10° NNE visible
01 Jun - 23:31:36 10° WNW 23:34:49 17° NW 23:38:12 10° N visible
02 Jun - 04:48:14 10° N 04:52:39 21° NE 04:57:15 10° E visible
02 Jun - 06:30:31 10° NNW 06:36:35 89° ENE 06:42:55 10° SSE daylight
02 Jun - 08:15:28 10° WNW 08:19:03 16° WSW 08:22:41 10° SW daylight
02 Jun - 21:11:06 10° SSW 21:15:40 60° ESE 21:20:45 10° NE daylight
02 Jun - 22:55:27 10° W 22:59:16 22° NW 23:03:24 10° N visible
03 Jun - 04:13:27 10° N 04:17:06 16° NE 04:20:53 10° ENE visible
03 Jun - 05:55:21 10° NNW 06:01:21 66° ENE 06:07:38 10° SE daylight
03 Jun - 07:39:23 10° WNW 07:44:06 24° WSW 07:48:56 10° SSW daylight
03 Jun - 20:36:18 10° S 20:40:36 38° ESE 20:45:21 10° NE daylight
03 Jun - 22:19:34 10° WSW 22:23:49 30° NW 22:28:28 10° NNE visible
04 Jun - 03:38:51 10° N 03:41:28 13° NNE 03:44:09 10° ENE visible
04 Jun - 05:20:15 10° NNW 05:26:04 48° NE 05:32:09 10° SE visible
04 Jun - 07:03:42 10° NW 07:09:06 33° WSW 07:14:40 10° S daylight
04 Jun - 20:01:49 10° SSE 20:05:37 25° ESE 20:09:45 10° NE daylight
04 Jun - 21:43:54 10° WSW 21:48:26 42° NW 21:53:27 10° NNE visible
04 Jun - 23:32:24 10° NW 23:33:11 10° NNW 23:33:58 10° NNW visible
05 Jun - 03:05:13 10° NNE 03:05:46 10° NNE 03:06:20 10° NNE visible
05 Jun - 04:45:13 10° NNW 04:50:42 36° NE 04:56:27 10° ESE visible
05 Jun - 06:28:13 10° NW 06:34:02 48° WSW 06:40:04 10° S daylight
05 Jun - 19:27:48 10° SE 19:30:43 16° ESE 19:33:47 10° ENE daylight
05 Jun - 21:08:26 10° SW 21:13:07 62° NW 21:18:22 10° NNE daylight
05 Jun - 22:55:03 10° WNW 22:57:30 13° NNW 23:00:04 10° N visible
06 Jun - 04:10:14 10° NNW 04:15:16 27° NE 04:20:31 10° ESE visible
06 Jun - 05:52:52 10° NW 05:58:55 67° WSW 06:05:12 10° SSE daylight
06 Jun - 07:39:53 10° W 07:41:06 11° W 07:42:19 10° WSW daylight
06 Jun - 18:55:44 10° ESE 18:55:52 10° E 18:56:00 10° E daylight
06 Jun - 20:33:11 10° SSW 20:37:54 89° ESE 20:43:11 10° NNE daylight
06 Jun - 22:18:34 10° W 22:21:54 17° NW 22:25:26 10° N visible
07 Jun - 03:35:20 10° N 03:39:48 21° NE 03:44:24 10° E visible
07 Jun - 05:17:37 10° NNW 05:23:44 88° ENE 05:30:06 10° SSE visible
07 Jun - 07:02:32 10° WNW 07:06:13 16° WSW 07:09:57 10° SW daylight
07 Jun - 19:58:09 10° SSW 20:02:46 59° ESE 20:07:54 10° NE daylight
07 Jun - 21:42:27 10° W 21:46:22 23° NW 21:50:36 10° N daylight
08 Jun - 03:00:33 10° N 03:04:13 16° NE 03:08:00 10° ENE visible
08 Jun - 04:42:27 10° NNW 04:48:30 65° ENE 04:54:47 10° SE visible
08 Jun - 06:26:29 10° NW 06:31:16 24° WSW 06:36:10 10° SSW daylight
08 Jun - 19:23:22 10° S 19:27:42 38° ESE 19:32:29 10° NE daylight
08 Jun - 21:06:34 10° WSW 21:10:54 31° NW 21:15:39 10° NNE daylight
